York, NE

1:20 AM CDT on May 25, 2017 (GMT -0500)
York Municipal

Weather History for KJYR - October, 2012

Change the Weather History Date:

Monday, October 8, 2012

  Actual Average Record
Temperature  
Mean Temperature 52 °F -  
Max Temperature 73 °F 68 °F 93 °F (2010)
Min Temperature 32 °F 43 °F 28 °F (1952)
Degree Days  
Heating Degree Days 12    
Growing Degree Days 2 (Base 50)    
Moisture  
Dew Point 29 °F    
Average Humidity 52    
Maximum Humidity 100    
Minimum Humidity 14    
Precipitation  
Precipitation 0.00 in - - ()
Sea Level Pressure  
Sea Level Pressure 29.89 in    
Wind  
Wind Speed 10 mph (SW)    
Max Wind Speed 23 mph    
Max Gust Speed 31 mph    
Visibility 10 miles    
Events      
Averages and records for this station are not official NWS values.
T = Trace of Precipitation, MM = Missing Value Source: NWS Daily Summary

Daily Weather History Graph

Daily Weather History Graph

Search for Another Location

Airport or City:

Trip Planner

Search our weather history database for the weather conditions in past years. The results will help you decide how hot, cold, wet, or windy it might be!

Date:

Astronomy

Oct. 08, 2012 Rise Set
Actual Time 7:34 AM CDT 7:00 PM CDT
Civil Twilight 7:07 AM CDT 7:27 PM CDT
Nautical Twilight 6:35 AM CDT 7:59 PM CDT
Astronomical Twilight 6:03 AM CDT 8:31 PM CDT
Moon 12:13 AM CDT (10/8) 2:53 PM CDT (10/8)
Length of Visible Light 12h 20m
Length of Day
11h 25m
Last Quarter, 46% of the Moon is Illuminated
Oct 8
Last Quarter
Oct 15
New
Oct 21
First Quarter
Oct 29
Full
Nov 6
Last Quarter

Hourly Weather History & Observations

Time (CDT) Temp. Windchill Dew Point Humidity Pressure Visibility Wind Dir Wind Speed Gust Speed Precip Events Conditions
12:15 AM 41.0 °F 33.5 °F 32.0 °F 70% 30.02 in 10.0 mi SW 13.8 mph - N/A   Clear
12:35 AM 41.0 °F 33.9 °F 32.0 °F 70% 30.01 in 10.0 mi SW 12.7 mph - N/A   Unknown
12:55 AM 39.2 °F 32.0 °F 33.8 °F 81% 30.01 in 10.0 mi SW 11.5 mph - N/A   Clear
1:15 AM 39.2 °F 32.0 °F 33.8 °F 81% 30.01 in 10.0 mi SW 11.5 mph - N/A   Clear
1:35 AM 39.2 °F 32.5 °F 33.8 °F 81% 30.01 in 10.0 mi SW 10.4 mph - N/A   Clear
1:55 AM 39.2 °F 32.5 °F 33.8 °F 81% 30.01 in 10.0 mi SW 10.4 mph - N/A   Clear
2:15 AM 37.4 °F 30.8 °F 33.8 °F 87% 30.01 in 10.0 mi SW 9.2 mph - N/A   Clear
2:35 AM 37.4 °F 30.8 °F 33.8 °F 87% 30.00 in 10.0 mi SW 9.2 mph - N/A   Clear
2:55 AM 37.4 °F 30.8 °F 33.8 °F 87% 30.00 in 10.0 mi SW 9.2 mph - N/A   Clear
3:15 AM 35.6 °F 29.2 °F 32.0 °F 87% 29.99 in 10.0 mi SW 8.1 mph - N/A   Clear
3:35 AM 35.6 °F 31.7 °F 32.0 °F 87% 29.98 in 10.0 mi SW 4.6 mph - N/A   Clear
3:55 AM 35.6 °F 28.6 °F 32.0 °F 87% 29.97 in 10.0 mi SW 9.2 mph - N/A   Clear
4:15 AM 35.6 °F 29.2 °F 32.0 °F 87% 29.97 in 10.0 mi SW 8.1 mph - N/A   Clear
4:35 AM 35.6 °F - 32.0 °F 87% 29.97 in 10.0 mi Calm Calm - N/A   Clear
4:55 AM 33.8 °F - 32.0 °F 93% 29.97 in 10.0 mi Calm Calm - N/A   Clear
5:15 AM 35.6 °F - 32.0 °F 87% 29.97 in 10.0 mi Calm Calm - N/A   Clear
5:35 AM 33.8 °F - 32.0 °F 93% 29.97 in 10.0 mi Calm Calm - N/A   Clear
5:55 AM 33.8 °F - 32.0 °F 93% 29.96 in 10.0 mi Calm Calm - N/A   Clear
6:15 AM 33.8 °F - 32.0 °F 93% 29.96 in 10.0 mi Calm Calm - N/A   Clear
6:35 AM 32.0 °F - 32.0 °F 100% 29.96 in 10.0 mi Calm Calm - N/A   Clear
6:55 AM 32.0 °F - 32.0 °F 100% 29.95 in 10.0 mi Calm Calm - N/A   Clear
7:15 AM 32.0 °F 24.8 °F 32.0 °F 100% 29.95 in 10.0 mi SW 8.1 mph - N/A   Clear
7:35 AM 32.0 °F 24.8 °F 32.0 °F 100% 29.95 in 9.0 mi SSW 8.1 mph - N/A   Clear
7:55 AM 32.0 °F - 32.0 °F 100% 29.96 in 9.0 mi Calm Calm - N/A   Clear
8:15 AM 33.8 °F 26.4 °F 32.0 °F 93% 29.95 in 9.0 mi SSW 9.2 mph - N/A   Clear
8:35 AM 35.6 °F 28.0 °F 32.0 °F 87% 29.94 in 9.0 mi SSW 10.4 mph - N/A   Clear
8:55 AM 37.4 °F 30.3 °F 33.8 °F 87% 29.94 in 9.0 mi SSW 10.4 mph - N/A   Clear
9:15 AM 41.0 °F 34.7 °F 32.0 °F 70% 29.94 in 10.0 mi SW 10.4 mph - N/A   Clear
9:35 AM 44.6 °F 39.7 °F 33.8 °F 66% 29.94 in 10.0 mi SW 9.2 mph - N/A   Clear
9:55 AM 48.2 °F - 32.0 °F 54% 29.94 in 10.0 mi SSW 12.7 mph - N/A   Clear
10:15 AM 50.0 °F - 32.0 °F 50% 29.93 in 10.0 mi SSW 12.7 mph - N/A   Clear
10:35 AM 55.4 °F - 32.0 °F 41% 29.93 in 10.0 mi SSW 13.8 mph - N/A   Clear
10:55 AM 57.2 °F - 32.0 °F 38% 29.92 in 10.0 mi SW 13.8 mph 20.7 mph N/A   Clear
11:15 AM 59.0 °F - 32.0 °F 36% 29.91 in 10.0 mi SW 15.0 mph - N/A   Clear
11:35 AM 60.8 °F - 32.0 °F 34% 29.90 in 10.0 mi SSW 15.0 mph 19.6 mph N/A   Clear
11:55 AM 62.6 °F - 32.0 °F 32% 29.89 in 10.0 mi SSW 16.1 mph - N/A   Clear
12:15 PM 64.4 °F - 32.0 °F 30% 29.89 in 10.0 mi SW 15.0 mph 20.7 mph N/A   Clear
12:35 PM 66.2 °F - 30.2 °F 26% 29.87 in 10.0 mi SW 18.4 mph 24.2 mph N/A   Clear
12:55 PM 66.2 °F - 28.4 °F 24% 29.86 in 10.0 mi SW 18.4 mph 25.3 mph N/A   Clear
1:15 PM 68.0 °F - 28.4 °F 23% 29.85 in 10.0 mi SW 15.0 mph 27.6 mph N/A   Clear
1:35 PM 69.8 °F - 28.4 °F 21% 29.84 in 10.0 mi SW 18.4 mph 28.8 mph N/A   Clear
1:55 PM 71.6 °F - 26.6 °F 19% 29.83 in 10.0 mi SW 19.6 mph 24.2 mph N/A   Clear
2:15 PM 71.6 °F - 26.6 °F 19% 29.82 in 10.0 mi SW 21.9 mph 27.6 mph N/A   Clear
2:35 PM 71.6 °F - 26.6 °F 19% 29.81 in 10.0 mi SW 23.0 mph 26.5 mph N/A   Clear
2:55 PM 73.4 °F - 24.8 °F 16% 29.80 in 10.0 mi SW 18.4 mph 27.6 mph N/A   Clear
3:15 PM 73.4 °F - 24.8 °F 16% 29.80 in 10.0 mi WSW 21.9 mph 28.8 mph N/A   Clear
3:35 PM 73.4 °F - 24.8 °F 16% 29.79 in 10.0 mi WSW 17.3 mph 31.1 mph N/A   Clear
3:55 PM 71.6 °F - 24.8 °F 17% 29.79 in 10.0 mi WSW 18.4 mph 27.6 mph N/A   Clear
4:15 PM 73.4 °F - 24.8 °F 16% 29.78 in 10.0 mi WSW 18.4 mph 23.0 mph N/A   Clear
4:35 PM 73.4 °F - 24.8 °F 16% 29.78 in 10.0 mi WSW 19.6 mph 24.2 mph N/A   Clear
4:55 PM 73.4 °F - 24.8 °F 16% 29.78 in 10.0 mi SW 18.4 mph 25.3 mph N/A   Clear
5:15 PM 73.4 °F - 26.6 °F 18% 29.78 in 10.0 mi SW 16.1 mph 23.0 mph N/A   Clear
5:35 PM 73.4 °F - 26.6 °F 18% 29.78 in 10.0 mi WSW 13.8 mph 18.4 mph N/A   Clear
5:55 PM 73.4 °F - 26.6 °F 18% 29.78 in 10.0 mi WSW 8.1 mph - N/A   Clear
6:15 PM 73.4 °F - 21.2 °F 14% 29.78 in 10.0 mi West 8.1 mph - N/A   Clear
6:35 PM 68.0 °F - 21.2 °F 17% 29.78 in 10.0 mi SW 5.8 mph - N/A   Clear
6:55 PM 66.2 °F - 19.4 °F 17% 29.78 in 9.0 mi SW 4.6 mph - N/A   Clear
7:15 PM 64.4 °F - 21.2 °F 19% 29.78 in 10.0 mi South 4.6 mph - N/A   Clear
7:35 PM 62.6 °F - 24.8 °F 24% 29.79 in 10.0 mi SSW 5.8 mph - N/A   Clear
7:55 PM 62.6 °F - 24.8 °F 24% 29.79 in 10.0 mi SSW 5.8 mph - N/A   Clear
8:15 PM 59.0 °F - 24.8 °F 27% 29.79 in 10.0 mi South 5.8 mph - N/A   Clear
8:35 PM 59.0 °F - 24.8 °F 27% 29.79 in 9.0 mi SSE 6.9 mph - N/A   Clear
8:55 PM 55.4 °F - 24.8 °F 31% 29.78 in 9.0 mi South 8.1 mph - N/A   Clear
9:15 PM 55.4 °F - 26.6 °F 33% 29.78 in 10.0 mi South 9.2 mph - N/A   Clear
9:35 PM 53.6 °F - 26.6 °F 35% 29.79 in 10.0 mi SSW 6.9 mph - N/A   Clear
9:55 PM 53.6 °F - 26.6 °F 35% 29.79 in 10.0 mi SSW 8.1 mph - N/A   Clear
10:15 PM 53.6 °F - 26.6 °F 35% 29.80 in 10.0 mi SSW 8.1 mph - N/A   Clear
10:55 PM 57.2 °F - 26.6 °F 31% 29.82 in 10.0 mi West 11.5 mph 20.7 mph N/A   Clear
11:35 PM 55.4 °F - 26.6 °F 33% 29.82 in 10.0 mi SSW 10.4 mph - N/A   Clear